Regional Weather Roundup
Issued by NWS

Home | Current Version | Previous Version | Text Only | Print | Product List | Glossary Off
Versions: 1 2 3 4 5 6 7 8 9 10 11 12 13 14 15 16 17 18 19 20 21 22 23 24 25 26 27 28 29 30 31 32 33 34 35 36 37 38 39 40 41 42 43 44 45 46 47 48 49 50

000
ASUS43 KDMX 031407
RWRIA

WEATHER ROUNDUP FOR IOWA
NATIONAL WEATHER SERVICE DES MOINES IA
900 AM CDT THU SEP 03 2015

NOTE: "FAIR" INDICATES FEW OR NO CLOUDS BELOW 12,000 FEET WITH NO
SIGNIFICANT WEATHER AND/OR OBSTRUCTIONS TO VISIBILITY.

* - THESE STATIONS ARE NOT NWS STATIONS...THUS NOT UNDER NWS
QUALITY CONTROL.  THEY ALSO DO NOT REPORT WEATHER SUCH
AS PRECIPITATION OR FOG.

IAZ001>003-012>014-020>022-031>034-043>046-031500-
   NORTHWEST IOWA

CITY           SKY/WX    TMP DP  RH WIND       PRES   REMARKS
CARROLL *      SUNNY     75  72  88 S8        29.90R
CHEROKEE *     SUNNY     73  72  94 S6        29.88R
DENISON *      SUNNY     75  70  83 S9        29.87S
LE MARS *      SUNNY     75  70  83 S7        29.86S
ORANGE CITY *  SUNNY     73  70  88 SE6       29.87S
SHELDON *      SUNNY     73  70  88 S8        29.87R
SIOUX CITY     SUNNY     74  68  81 SE9       29.84S
SPENCER        SUNNY     74  69  85 S8        29.89R
STORM LAKE *   SUNNY     72  70  94 S9        29.90S
$$

IAZ055>058-069>071-079>083-090>094-031500-
   SOUTHWEST IOWA

CITY           SKY/WX    TMP DP  RH WIND       PRES   REMARKS
ATLANTIC *     SUNNY     75  70  83 S9        29.90S
AUDUBON *      SUNNY     75  70  83 S6        29.91S
CLARINDA *     PTSUNNY   75  70  83 S9G15     29.93S
COUNCIL BLFS * SUNNY     75  70  83 SE9       29.88S
CRESTON *      PTSUNNY   77  70  78 S13G18    29.95R
LAMONI         MOSUNNY   76  70  82 S9        29.95R
RED OAK *      MOSUNNY   77  70  78 S9        29.90S
SHENANDOAH *   PTSUNNY   77  70  78 S13       29.90S
$$

IAZ047>049-059>061-072>074-084-031500-
   CENTRAL IOWA

CITY           SKY/WX    TMP DP  RH WIND       PRES   REMARKS
AMES           SUNNY     74  71  91 SE5       29.92S
ANKENY *       PTSUNNY   77  72  83 S7        29.92R
CHARITON *     MOSUNNY   75  70  83 S8        29.95S
DES MOINES     PTSUNNY   77  69  76 S9        29.92R
GRINNELL*      SUNNY     75  70  83 S7        29.95R
KNOXVILLE *    LGT RAIN  73  70  88 S9        29.93S
MARSHALLTOWN   SUNNY     75  70  84 S7        29.93S
PELLA *        MOSUNNY   75  73  94 CALM      29.95S
PERRY *          N/A     77  72  83 S5        29.91R
$$

IAZ004>006-015-016-023>025-035-036-031500-
   NORTH CENTRAL IOWA

CITY           SKY/WX    TMP DP  RH WIND       PRES   REMARKS
ALGONA *       SUNNY     73  70  88 S9        29.91S
CLARION *      SUNNY     75  72  88 S9G15     29.91F
ESTHERVILLE    SUNNY     71  70  96 S8        29.90R
FORT DODGE *   SUNNY     75  68  78 S5        29.92R
MASON CITY     SUNNY     73  71  93 S6        29.94S
FOREST CITY *  SUNNY     72  70  94 SE6       29.92S
IOWA FALLS *     N/A     75  70  83 S6        29.94S
$$

IAZ007>011-017>019-026>030-037>042-050>054-066-031500-
   NORTHEAST IOWA

CITY           SKY/WX    TMP DP  RH WIND       PRES   REMARKS
CEDAR RAPIDS   SUNNY     77  73  87 S7        29.94S
CHARLES CITY * SUNNY     73  73 100 VRB3      29.94S
CLINTON *      SUNNY     75  72  88 SW9       29.97S
DECORAH *      SUNNY     75  72  88 W6        29.93S
DUBUQUE        SUNNY     75  70  84 SW7       29.95S
MONTICELLO *   SUNNY     77  72  83 SW7       29.94S
OELWEIN *      SUNNY     75  72  88 SW6       29.95S
WATERLOO       SUNNY     76  70  82 SW5       29.92S
$$

IAZ064-065-067-068-078-031500-
   EAST CENTRAL IOWA

CITY           SKY/WX    TMP DP  RH WIND       PRES   REMARKS
DAVENPORT      SUNNY     78  70  76 SW8       29.96F HX  80
IOWA CITY      SUNNY     75  70  84 S7        29.96S
MT. PLEASANT * CLOUDY    81  68  65 S7        29.98S HX  83
MUSCATINE *    SUNNY     79  70  73 S8        29.96S HX  81
QUAD CITIES    MOSUNNY   79  69  71 S7        29.95F HX  81
$$

IAZ062-063-075>077-085>089-095>099-031500-
   SOUTHEAST IOWA

CITY           SKY/WX    TMP DP  RH WIND       PRES   REMARKS
BURLINGTON     SUNNY     77  70  79 S7        29.98S
FAIRFIELD *    PTSUNNY   77  70  78 S8        29.96F
FORT MADISON * SUNNY     77  72  83 S8        29.99S
KEOKUK *       SUNNY     77  70  78 SW6       29.98S
OSKALOOSA *      N/A     79  70  73 SW8       29.96S HX  81
CENTERVILLE *  SUNNY     75  72  88 S9        29.98S
OTTUMWA        SUNNY     77  72  84 S8        29.94R
WASHINGTON *     N/A    N/A N/A N/A MISG        N/A
$$

ABBREVIATIONS USED IN REMARKS
   TC - TEMPERATURES IN CELSIUS
  WCI - WIND CHILL INDEX
   HX - HEAT INDEX
  VSB - VISIBILITY
$$




USA.gov is the U.S. government's official web portal to all federal, state and local government web resources and services.